C/2007 Y2 ( McNaught )

Japanese version
Home page
Total 5,708 html files since Dec. 4, 1995
Updated on April 3, 2008

---------------------------------------------------------------------

* Profile

Discovery Date December 31, 2007
Magnitude 19.0 mag
Discoverer R. H. McNaught (Siding Spring Survey)

* Orbital Elements

Epoch 2008 Apr. 4.0 TT = JDT 2454560.5
T 2008 Apr. 8.42368 TT                                  MPC
q   4.2089096            (2000.0)            P               Q
z  +0.0008467      Peri.  257.69062     +0.00297022     +0.56501023
 +/-0.0000629      Node   303.46228     +0.62062190     -0.64799493
e   0.9964362      Incl.   98.50325     -0.78410435     -0.51075044

* Magnitudes Graph

        m1 = 10.5 + 5 log d + 10.0 log r

---------------------------------------------------------------------

The orbital elements are published on M.P.E.C. 2008-E14.
The magnitudes graphs are made with Comet for Windows.

---------------------------------------------------------------------

Copyright(C) 1995-2007 Seiichi Yoshida (comet@aerith.net). All rights reserved.